[[{"header":{"parameterUnit":"m.s-1","parameterCategory":2,"la1":30.2991,"la2":30.254,"lo1":-89.0895,"lo2":-89.0444,"dy":0.0017,"dx":0.0017,"nx":28,"ny":28,"refTime":"2026-02-11T03:00:00:Z","depth":"0","parameterNumber":2,"parameterNumberName":"U-component_of_CURRENTS"},"data":[0,0,0,0,0,0,0,0,0,0,0,0,0,0,0,0,0,0,0,0,0,0,0,0,0,0,0,0,0,0,0,0,0,0,0,0,0,0,0,0,0,0,0,0,0,0,0,0,0,0,0,0,0,0,0,0,0,0,-0.3029,-0.3028,0,-0.2948,-0.2946,-0.2944,-0.2833,-0.2832,-0.2831,-0.2829,-0.2695,-0.2692,-0.269,0,0,0,0,0,0,0,0,0,0,0,0,0,-0.2981,-0.2982,-0.3029,-0.3028,-0.3028,-0.2948,-0.2946,-0.2944,-0.2833,-0.2832,-0.283,-0.2829,-0.2695,-0.2692,-0.2689,0,0,0,0,0,0,0,0,0,0,0,0,0,-0.2954,-0.2983,-0.3029,-0.2969,-0.2963,-0.2948,-0.2946,-0.2944,-0.2833,-0.2832,-0.283,-0.2828,-0.2696,-0.2693,-0.2689,-0.2701,0,0,-0.2678,-0.2676,0,0,0,0,0,0,0,0,-0.2956,-0.2955,-0.2978,-0.2973,-0.2967,-0.2905,-0.288,-0.2862,-0.2834,-0.2874,-0.2829,-0.2827,-0.2766,-0.2757,-0.2735,-0.2695,-0.2689,-0.2677,-0.2675,-0.2673,-0.2672,0,0,0,0,0,0,0,-0.2958,-0.2957,-0.2989,-0.2978,-0.2971,-0.291,-0.2904,-0.2875,-0.2824,-0.2871,-0.2864,-0.2868,-0.2762,-0.2739,-0.2731,-0.2687,-0.2677,-0.2674,-0.2672,-0.267,-0.2631,-0.2632,0,0,0,0,0,0,-0.2991,-0.296,-0.2991,-0.2987,-0.2965,-0.2913,-0.2906,-0.292,-0.2826,-0.2812,-0.287,-0.2864,-0.2746,-0.2736,-0.2726,-0.2697,-0.2673,-0.267,-0.2668,-0.2629,-0.2631,-0.2632,0,0,0,0,0,0,-0.2991,-0.2995,-0.2995,-0.2976,-0.2973,-0.2918,-0.2933,-0.292,-0.29,-0.2827,-0.281,-0.2865,-0.2745,-0.2731,-0.2707,-0.2692,-0.2668,-0.2665,-0.2628,-0.263,-0.2631,-0.2662,0,0,0,0,0,0,-0.299,-0.2996,-0.3007,-0.298,-0.2976,-0.3002,-0.2935,-0.292,-0.2909,-0.2899,-0.2818,-0.2803,-0.2742,-0.2714,-0.2704,-0.2686,-0.2662,-0.2626,-0.2629,-0.2631,-0.266,-0.2665,-0.2669,0,0,0,0,0,-0.2989,-0.3026,-0.3009,-0.3012,-0.2998,-0.3005,-0.2997,-0.2944,-0.2911,-0.2915,-0.2857,-0.2805,-0.272,-0.2712,-0.27,-0.2681,-0.2625,-0.2628,-0.2631,-0.2658,-0.2664,-0.2669,0,0,0,0,0,0,-0.3021,-0.3018,-0.2998,-0.3035,-0.3026,-0.2989,-0.2989,-0.2961,-0.2918,-0.2903,-0.2824,-0.2807,-0.2772,-0.2745,-0.2738,-0.2682,-0.2663,-0.2664,-0.2688,-0.2693,-0.2698,-0.2677,-0.2659,0,0,0,0,0,-0.3037,-0.3048,-0.3045,-0.3068,-0.3073,-0.3033,-0.3026,-0.2999,-0.2966,-0.2943,-0.2887,-0.283,-0.2776,-0.2752,-0.2707,-0.269,-0.2646,-0.2673,-0.2677,-0.2681,-0.266,-0.26,-0.2596,-0.2641,-0.2641,-0.2641,0,0,-0.3058,-0.3053,-0.3062,-0.3073,-0.3056,-0.3046,-0.3023,-0.3029,-0.2999,-0.2939,-0.2885,-0.2847,-0.2779,-0.2739,-0.2722,-0.2712,-0.2653,-0.2685,-0.2688,-0.2664,-0.2602,-0.2597,-0.2593,-0.2643,-0.2642,-0.2642,0,0,-0.3075,-0.3104,-0.3099,-0.3106,-0.3099,-0.3075,-0.3087,-0.3063,-0.3034,-0.3007,-0.2937,-0.2897,-0.2837,-0.2767,-0.2726,-0.2742,-0.268,-0.2742,-0.2741,-0.2684,-0.2678,-0.2673,-0.2633,-0.2624,-0.2744,-0.2744,-0.2744,0,-0.3079,-0.3079,-0.3103,-0.31,-0.3089,-0.309,-0.3073,-0.306,-0.3024,-0.3,-0.2997,-0.2886,-0.2834,-0.2752,-0.2747,-0.2744,-0.2715,-0.2718,-0.2686,-0.268,-0.2673,-0.2633,-0.2622,-0.2746,-0.2746,-0.2745,-0.2745,0,-0.308,-0.3081,-0.3092,-0.3065,-0.3073,-0.3073,-0.3068,-0.3065,-0.3039,-0.3008,-0.2956,-0.29,-0.2825,-0.2814,-0.2774,-0.2708,-0.2704,-0.2696,-0.2663,-0.267,-0.2629,-0.2617,-0.2748,-0.2748,-0.2747,-0.2747,0,0,-0.3031,-0.3072,-0.3063,-0.303,-0.305,-0.3036,-0.3039,-0.3006,-0.2969,-0.2967,-0.2899,-0.284,-0.2826,-0.2781,-0.2742,-0.2697,-0.2634,-0.2682,-0.2678,-0.2627,-0.252,-0.2445,-0.2425,-0.2623,-0.262,-0.2619,-0.2515,0,-0.2981,-0.2957,-0.2999,-0.295,-0.2923,-0.2961,-0.2945,-0.2937,-0.2926,-0.2879,-0.2855,-0.2784,-0.281,-0.2764,-0.2731,-0.2645,-0.2601,-0.2663,-0.2533,-0.2528,-0.2447,-0.2407,-0.2319,-0.2212,-0.2503,-0.2501,-0.25,0,-0.2912,-0.29,-0.2862,-0.2845,-0.284,-0.2826,-0.2788,-0.2784,-0.2775,-0.2772,-0.2757,-0.2739,-0.2676,-0.269,-0.2589,-0.2632,-0.2574,-0.2527,-0.2522,-0.2422,-0.2429,-0.2249,-0.2179,-0.2169,-0.2481,-0.2482,-0.2484,0,-0.2774,-0.2776,-0.2726,-0.273,-0.2741,-0.2725,-0.2724,-0.2735,-0.2728,-0.2698,-0.2689,-0.2646,-0.2601,-0.2547,-0.2499,-0.2528,-0.238,-0.2402,-0.2287,-0.2283,-0.2162,-0.2149,-0.2043,-0.2307,-0.2307,-0.2307,-0.2308,0,-0.2652,-0.2601,-0.2658,-0.2624,-0.2567,-0.2617,-0.2569,-0.2583,-0.2599,-0.2576,-0.2618,-0.2588,-0.2562,-0.2505,-0.2461,-0.2338,-0.2355,-0.2257,-0.2233,-0.2175,-0.2166,-0.2115,-0.2156,-0.2303,-0.2304,-0.2305,-0.2306,0,-0.2476,-0.2521,-0.247,-0.2493,-0.2499,-0.2456,-0.25,-0.2476,-0.2518,-0.2491,-0.2483,-0.2515,-0.2444,-0.2419,-0.2302,-0.2268,-0.2114,-0.2111,-0.2057,-0.2026,-0.1902,-0.1949,-0.1809,-0.1748,-0.195,-0.1948,-0.1945,0,-0.2371,-0.2334,-0.2371,-0.2361,-0.2367,-0.2349,-0.2349,-0.2411,-0.2415,-0.2447,-0.2419,-0.2378,-0.2325,-0.217,-0.2075,-0.1957,-0.1991,-0.1818,-0.1838,-0.1848,-0.1884,-0.1934,-0.1898,-0.1709,-0.1705,-0.1701,-0.1699,0,-0.2178,-0.2219,-0.2202,-0.2208,-0.2204,-0.2202,-0.2216,-0.2216,-0.2287,-0.2283,-0.2258,-0.2214,-0.21,-0.1943,-0.1817,-0.1745,-0.1776,-0.1744,-0.1751,-0.1666,-0.1711,-0.1658,-0.1857,-0.1669,-0.1672,-0.1674,-0.1676,-0.1677,-0.2049,-0.2024,-0.205,-0.2031,-0.2043,-0.2037,-0.1989,-0.203,-0.2016,-0.1966,-0.2053,-0.1932,-0.1869,-0.167,-0.1588,-0.145,-0.153,-0.1415,-0.1468,-0.1515,-0.1454,-0.1591,-0.1381,-0.1382,-0.1383,-0.1384,-0.1385,0,-0.1882,-0.1888,-0.1873,-0.1864,-0.1821,-0.1882,-0.1878,-0.1809,-0.1743,-0.1696,-0.1651,-0.1588,-0.1473,-0.1412,-0.1303,-0.1215,-0.1196,-0.1197,-0.1258,-0.1229,-0.1325,-0.1312,-0.1078,-0.1078,-0.1078,-0.1078,-0.1078,-0.1078,-0.18,-0.1743,-0.175,-0.164,-0.1632,-0.1534,-0.15,-0.1421,-0.1345,-0.1178,-0.1097,-0.1041,-0.1157,-0.133,-0.1231,-0.1151,-0.114,-0.1096,-0.1128,-0.1234,-0.1259,-0.1284,-0.1279,-0.1042,-0.1042,-0.0973,-0.0973,-0.0973]},{"header":{"parameterUnit":"m.s-1","parameterCategory":2,"la1":30.2991,"la2":30.254,"lo1":-89.0895,"lo2":-89.0444,"dy":0.0017,"dx":0.0017,"nx":28,"ny":28,"refTime":"2026-02-11T03:00:00:Z","depth":"0","parameterNumber":3,"parameterNumberName":"V-component_of_CURRENTS"},"data":[0,0,0,0,0,0,0,0,0,0,0,0,0,0,0,0,0,0,0,0,0,0,0,0,0,0,0,0,0,0,0,0,0,0,0,0,0,0,0,0,0,0,0,0,0,0,0,0,0,0,0,0,0,0,0,0,0,0,0.0375,0.0376,0,0.0471,0.0471,0.0472,0.0525,0.0526,0.0527,0.0527,0.0599,0.06,0.0602,0,0,0,0,0,0,0,0,0,0,0,0,0,0.0166,0.017,0.0374,0.0376,0.0378,0.0471,0.0471,0.0472,0.0525,0.0526,0.0527,0.0528,0.0598,0.06,0.0602,0,0,0,0,0,0,0,0,0,0,0,0,0,0.0254,0.0171,0.0374,0.0419,0.0425,0.0471,0.0472,0.0473,0.0525,0.0526,0.0527,0.0528,0.0598,0.06,0.0602,0.0595,0,0,0.0608,0.0609,0,0,0,0,0,0,0,0,0.0249,0.0261,0.0411,0.0416,0.0423,0.0492,0.0425,0.0514,0.0525,0.0481,0.0527,0.0528,0.0564,0.0568,0.0577,0.0598,0.0601,0.0608,0.0609,0.061,0.0611,0,0,0,0,0,0,0,0.0243,0.0257,0.0407,0.0413,0.042,0.0411,0.0425,0.0441,0.0511,0.0485,0.0491,0.051,0.0566,0.0575,0.0579,0.0602,0.0608,0.061,0.0611,0.0612,0.0648,0.0648,0,0,0,0,0,0,0.0245,0.0252,0.0404,0.0411,0.0342,0.0415,0.043,0.0464,0.0512,0.0522,0.0509,0.0512,0.0571,0.0577,0.0582,0.0602,0.061,0.0612,0.0613,0.0649,0.0648,0.0648,0,0,0,0,0,0,0.0241,0.0258,0.04,0.0336,0.0354,0.0419,0.0456,0.0466,0.0479,0.0531,0.0539,0.0513,0.0572,0.0579,0.0592,0.0604,0.0613,0.0615,0.0649,0.0649,0.0648,0.0626,0,0,0,0,0,0,0.0234,0.0256,0.0266,0.0337,0.0359,0.0423,0.0456,0.0467,0.0492,0.0496,0.0537,0.0545,0.0574,0.0589,0.0594,0.0607,0.0616,0.0649,0.0649,0.0648,0.0627,0.0625,0.0623,0,0,0,0,0,0.0227,0.0228,0.0266,0.0284,0.0375,0.0424,0.0432,0.0476,0.0491,0.0491,0.0517,0.0544,0.0591,0.059,0.0596,0.061,0.0649,0.0649,0.0648,0.0628,0.0625,0.0623,0,0,0,0,0,0,0.0145,0.0237,0.0279,0.0311,0.0367,0.0435,0.0431,0.047,0.049,0.0489,0.0534,0.0543,0.0564,0.0581,0.0579,0.0619,0.0627,0.0628,0.061,0.0607,0.0606,0.0577,0.0618,0,0,0,0,0,0.0135,0.0155,0.0251,0.0272,0.0298,0.0365,0.0385,0.0423,0.0461,0.0472,0.0507,0.0537,0.0565,0.058,0.0604,0.0616,0.0611,0.0631,0.0629,0.0627,0.0608,0.0597,0.0591,0.0647,0.0647,0.0647,0,0,0.0118,0.016,0.0179,0.0255,0.0294,0.0312,0.0376,0.0405,0.0422,0.0474,0.0487,0.0529,0.0565,0.0588,0.0599,0.0605,0.0612,0.0627,0.0625,0.0606,0.0595,0.059,0.0585,0.0646,0.0646,0.0646,0,0,0.005,0.0124,0.0106,0.0152,0.0213,0.0261,0.027,0.0346,0.0381,0.0414,0.0454,0.0498,0.0538,0.0574,0.0595,0.0592,0.0601,0.0604,0.0575,0.0565,0.056,0.0556,0.0552,0.0547,0.0605,0.0605,0.0605,0,0.0009,0.0023,0.0107,0.0099,0.0122,0.0233,0.022,0.0278,0.0349,0.0366,0.0412,0.0479,0.0534,0.0551,0.057,0.059,0.0576,0.0584,0.0561,0.0557,0.0552,0.055,0.0545,0.0604,0.0604,0.0604,0.0604,0,-0.0066,-0.0049,-0.0058,-0.0025,0.0011,0.0022,0.0125,0.016,0.0227,0.029,0.034,0.0425,0.0459,0.0505,0.0547,0.0548,0.0545,0.0559,0.0565,0.0545,0.0544,0.0539,0.0602,0.0603,0.0603,0.0603,0,0,-0.0183,-0.0128,-0.0131,-0.0132,-0.0051,-0.0032,0.0001,0.0059,0.0065,0.0182,0.0183,0.0306,0.0366,0.0393,0.0461,0.0486,0.0485,0.051,0.051,0.0501,0.0451,0.0538,0.0541,0.0483,0.0482,0.0481,0.0466,0,-0.0279,-0.0323,-0.0264,-0.0291,-0.0294,-0.0187,-0.0168,-0.0094,-0.0012,0.0024,0.0156,0.0193,0.0321,0.0339,0.0388,0.0445,0.0468,0.0487,0.0474,0.0474,0.055,0.0538,0.0589,0.0587,0.0461,0.046,0.046,0,-0.0378,-0.0395,-0.0441,-0.0416,-0.041,-0.0405,-0.0365,-0.0328,-0.0229,-0.0168,-0.0086,0.0011,0.0093,0.0194,0.0292,0.0289,0.0364,0.0426,0.0426,0.0506,0.0552,0.0584,0.0583,0.0732,0.0452,0.0453,0.0453,0,-0.0503,-0.0516,-0.0562,-0.0547,-0.05,-0.0509,-0.0482,-0.0396,-0.0364,-0.0297,-0.0272,-0.0165,-0.0099,-0.0009,0.0201,0.0208,0.0301,0.0316,0.0464,0.0471,0.0513,0.0526,0.0649,0.036,0.036,0.036,0.036,0,-0.0614,-0.0648,-0.0622,-0.0639,-0.0691,-0.0621,-0.065,-0.06,-0.0539,-0.0505,-0.0379,-0.032,-0.0146,-0.0029,0.0115,0.0299,0.0235,0.0449,0.047,0.051,0.0523,0.0654,0.0708,0.0359,0.0359,0.0359,0.0359,0,-0.0713,-0.07,-0.0747,-0.0739,-0.074,-0.0769,-0.0735,-0.0742,-0.068,-0.0643,-0.0624,-0.0456,-0.0297,-0.0102,0.0061,0.0207,0.0451,0.0433,0.0488,0.0517,0.0774,0.0824,0.0933,0.103,0.0535,0.0537,0.0539,0,-0.0757,-0.0793,-0.0819,-0.0845,-0.084,-0.0865,-0.087,-0.0814,-0.08,-0.0689,-0.0673,-0.0514,-0.0341,-0.006,0.019,0.0414,0.0552,0.0591,0.0631,0.0796,0.0865,0.0903,0.0978,0.0672,0.0675,0.0677,0.0679,0,-0.0834,-0.0842,-0.0872,-0.0934,-0.0959,-0.0984,-0.0982,-0.0987,-0.09,-0.0833,-0.0692,-0.0555,-0.0248,0.0066,0.037,0.0515,0.0708,0.0643,0.0785,0.0962,0.1034,0.1135,0.0679,0.0698,0.0696,0.0695,0.0694,0.0693,-0.0872,-0.0914,-0.0952,-0.1006,-0.1044,-0.1072,-0.1068,-0.1012,-0.0952,-0.0746,-0.0659,-0.0321,0.0005,0.0454,0.0603,0.0937,0.0892,0.1045,0.1081,0.1097,0.1232,0.0837,0.0909,0.0908,0.0908,0.0907,0.0907,0,-0.0906,-0.0952,-0.1016,-0.1073,-0.1119,-0.112,-0.111,-0.1032,-0.09,-0.0624,-0.0396,0.0137,0.049,0.0807,0.1187,0.1368,0.1404,0.1456,0.1509,0.1559,0.1181,0.1234,0.1415,0.1415,0.1415,0.1415,0.1414,0.1414,-0.0923,-0.099,-0.1027,-0.1111,-0.1149,-0.1151,-0.1127,-0.0939,-0.0712,-0.0221,0.0216,0.0516,0.0898,0.1386,0.1732,0.1763,0.1924,0.1904,0.1989,0.1724,0.1688,0.1654,0.1719,0.1999,0.2,0.2372,0.2375,0.2378]}],[{"header":{"parameterUnit":"m.s-1","parameterCategory":2,"la1":30.2991,"la2":30.254,"lo1":-89.0895,"lo2":-89.0444,"dy":0.0017,"dx":0.0017,"nx":28,"ny":28,"refTime":"2026-02-11T03:00:00:Z","depth":"2","parameterNumber":2,"parameterNumberName":"U-component_of_CURRENTS"},"data":[0,0,0,0,0,0,0,0,0,0,0,0,0,0,0,0,0,0,0,0,0,0,0,0,0,0,0,0,0,0,0,0,0,0,0,0,0,0,0,0,0,0,0,0,0,0,0,0,0,0,0,0,0,0,0,0,0,0,-0.2083,-0.2083,0,-0.2119,-0.2119,-0.2119,-0.2092,-0.2091,-0.209,-0.2089,-0.2112,-0.2113,-0.2115,0,0,0,0,0,0,0,0,0,0,0,0,0,-0.202,-0.2021,-0.2082,-0.2083,-0.2084,-0.2119,-0.2119,-0.2119,-0.2092,-0.2091,-0.209,-0.2088,-0.2111,-0.2113,-0.2115,0,0,0,0,0,0,0,0,0,0,0,0,0,-0.2049,-0.2021,-0.2082,-0.2076,-0.2075,-0.2118,-0.2119,-0.2119,-0.2092,-0.2091,-0.2089,-0.2088,-0.211,-0.2113,-0.2115,-0.2161,0,0,-0.2122,-0.2123,0,0,0,0,0,0,0,0,-0.2047,-0.2051,-0.2076,-0.2076,-0.2076,-0.2101,-0.2105,-0.2133,-0.2093,-0.2084,-0.2089,-0.2087,-0.2109,-0.2111,-0.2119,-0.2162,-0.2163,-0.2122,-0.2124,-0.2125,-0.2126,0,0,0,0,0,0,0,-0.2045,-0.205,-0.2095,-0.2077,-0.2077,-0.2081,-0.2083,-0.211,-0.2103,-0.2085,-0.2083,-0.2091,-0.2108,-0.2117,-0.212,-0.2163,-0.2122,-0.2124,-0.2126,-0.2127,-0.2245,-0.2247,0,0,0,0,0,0,-0.2045,-0.2048,-0.2094,-0.2096,-0.2059,-0.2083,-0.2086,-0.2093,-0.2103,-0.2104,-0.2092,-0.2089,-0.2114,-0.2117,-0.212,-0.2149,-0.2125,-0.2127,-0.2128,-0.2243,-0.2246,-0.2247,0,0,0,0,0,0,-0.2043,-0.2048,-0.2093,-0.2074,-0.208,-0.2086,-0.2095,-0.2095,-0.2102,-0.2109,-0.2109,-0.21,-0.2113,-0.2117,-0.2152,-0.215,-0.2128,-0.213,-0.2241,-0.2244,-0.2246,-0.2223,0,0,0,0,0,0,-0.2041,-0.2048,-0.2052,-0.2074,-0.2081,-0.2117,-0.2096,-0.2096,-0.211,-0.2107,-0.2116,-0.2116,-0.2112,-0.2148,-0.2154,-0.2153,-0.2132,-0.2239,-0.2243,-0.2246,-0.2222,-0.2225,-0.2227,0,0,0,0,0,-0.2039,-0.2054,-0.2052,-0.2057,-0.2087,-0.2118,-0.2123,-0.212,-0.2112,-0.2121,-0.2132,-0.2116,-0.2173,-0.2152,-0.2158,-0.2158,-0.2238,-0.2242,-0.2245,-0.222,-0.2224,-0.2227,0,0,0,0,0,0,-0.2032,-0.2053,-0.2051,-0.2072,-0.2093,-0.2114,-0.2125,-0.2129,-0.2146,-0.2143,-0.2143,-0.2145,-0.2175,-0.2186,-0.2163,-0.2207,-0.2202,-0.2207,-0.2181,-0.2184,-0.2187,-0.2176,-0.2134,0,0,0,0,0,-0.2034,-0.2045,-0.207,-0.2085,-0.2098,-0.2114,-0.2127,-0.213,-0.215,-0.2154,-0.2165,-0.2181,-0.22,-0.2205,-0.223,-0.2258,-0.2246,-0.2265,-0.2267,-0.2269,-0.2269,-0.2257,-0.2257,-0.226,-0.226,-0.226,0,0,-0.2034,-0.2048,-0.2053,-0.2084,-0.2099,-0.2123,-0.2117,-0.2143,-0.2157,-0.2158,-0.2183,-0.2198,-0.2215,-0.2239,-0.2252,-0.2242,-0.2262,-0.2274,-0.2275,-0.2274,-0.2261,-0.226,-0.2259,-0.2263,-0.2262,-0.2262,0,0,-0.2044,-0.2057,-0.2069,-0.2089,-0.2118,-0.2134,-0.2144,-0.2174,-0.2178,-0.2215,-0.2212,-0.2225,-0.2269,-0.2262,-0.2267,-0.2308,-0.2284,-0.2324,-0.2315,-0.2304,-0.2302,-0.23,-0.227,-0.2266,-0.2315,-0.2315,-0.2315,0,-0.2043,-0.2063,-0.208,-0.2101,-0.2119,-0.214,-0.2163,-0.2179,-0.2214,-0.2224,-0.2223,-0.2271,-0.2273,-0.2284,-0.2289,-0.2307,-0.2298,-0.2291,-0.2302,-0.23,-0.2299,-0.2269,-0.2264,-0.2315,-0.2315,-0.2315,-0.2315,0,-0.2062,-0.2081,-0.2095,-0.2123,-0.2146,-0.2173,-0.2199,-0.2223,-0.2237,-0.2249,-0.2277,-0.2285,-0.2304,-0.2307,-0.2306,-0.2304,-0.2299,-0.2307,-0.228,-0.2296,-0.2264,-0.226,-0.2314,-0.2314,-0.2314,-0.2314,0,0,-0.2051,-0.2098,-0.2101,-0.2114,-0.216,-0.218,-0.2213,-0.2245,-0.2257,-0.2284,-0.2293,-0.2312,-0.2311,-0.2319,-0.2315,-0.2297,-0.2264,-0.2296,-0.2296,-0.2241,-0.2227,-0.215,-0.2138,-0.2274,-0.2273,-0.2273,-0.2201,0,-0.2059,-0.2094,-0.2121,-0.2154,-0.2174,-0.2208,-0.2234,-0.2262,-0.2285,-0.2301,-0.2302,-0.2316,-0.2317,-0.2316,-0.2302,-0.2286,-0.2256,-0.2282,-0.2242,-0.224,-0.2149,-0.2132,-0.1987,-0.1906,-0.2197,-0.2196,-0.2196,0,-0.2061,-0.2087,-0.2119,-0.2162,-0.2174,-0.2198,-0.2238,-0.2264,-0.2293,-0.2309,-0.2322,-0.2329,-0.2314,-0.2309,-0.2274,-0.2293,-0.2258,-0.2236,-0.2233,-0.2166,-0.2156,-0.1943,-0.1887,-0.2189,-0.2189,-0.219,-0.219,0,-0.2026,-0.2079,-0.2102,-0.2118,-0.2174,-0.2193,-0.2222,-0.2261,-0.2281,-0.2304,-0.2319,-0.2319,-0.2312,-0.2285,-0.2246,-0.226,-0.2194,-0.2207,-0.21,-0.2094,-0.1964,-0.1947,-0.2165,-0.2165,-0.2166,-0.2166,-0.2166,0,-0.2015,-0.203,-0.2085,-0.2096,-0.212,-0.2168,-0.2194,-0.2225,-0.2264,-0.2273,-0.2311,-0.2309,-0.2308,-0.2278,-0.2239,-0.2149,-0.2187,-0.2085,-0.2067,-0.1953,-0.1937,-0.2188,-0.2192,-0.2163,-0.2164,-0.2164,-0.2165,0,-0.1961,-0.2004,-0.2026,-0.2085,-0.2101,-0.2112,-0.2172,-0.2185,-0.224,-0.2251,-0.2258,-0.2295,-0.2252,-0.223,-0.2172,-0.2127,-0.2055,-0.2011,-0.1867,-0.1833,-0.1963,-0.1967,-0.1881,-0.1878,-0.1875,-0.1872,-0.187,0,-0.1932,-0.1938,-0.1995,-0.2002,-0.2025,-0.2058,-0.2075,-0.2151,-0.2168,-0.2228,-0.2219,-0.2212,-0.2163,-0.2063,-0.1977,-0.1873,-0.1959,-0.1696,-0.1693,-0.1941,-0.1933,-0.1941,-0.1949,-0.1509,-0.1504,-0.15,-0.1497,0,-0.1862,-0.1883,-0.19,-0.192,-0.1938,-0.1964,-0.1999,-0.2015,-0.209,-0.2104,-0.2097,-0.2064,-0.1982,-0.1811,-0.1705,-0.1635,-0.1705,-0.1612,-0.1895,-0.1611,-0.1586,-0.158,-0.16,-0.1462,-0.1466,-0.1468,-0.147,-0.1471,-0.1789,-0.1783,-0.1802,-0.1807,-0.1832,-0.1837,-0.181,-0.1858,-0.1861,-0.1841,-0.1905,-0.1799,-0.1767,-0.1513,-0.141,-0.1334,-0.1455,-0.1396,-0.141,-0.1428,-0.1405,-0.1377,-0.1208,-0.121,-0.1212,-0.1213,-0.1215,0,-0.1679,-0.1682,-0.1684,-0.1685,-0.1657,-0.1715,-0.1722,-0.1666,-0.1613,-0.1625,-0.1582,-0.1393,-0.1266,-0.1238,-0.1057,-0.1013,-0.1018,-0.0977,-0.0994,-0.1028,-0.1059,-0.102,-0.072,-0.0718,-0.0717,-0.0716,0,0,-0.162,-0.1578,-0.158,-0.1496,-0.1494,-0.1407,-0.1377,-0.1319,-0.129,-0.1201,-0.1145,-0.1203,-0.1205,-0.0973,-0.0908,-0.0785,-0.0901,-0.074,-0.1137,-0.1191,-0.1221,-0.1297,-0.1275,0,0,0,0,0]},{"header":{"parameterUnit":"m.s-1","parameterCategory":2,"la1":30.2991,"la2":30.254,"lo1":-89.0895,"lo2":-89.0444,"dy":0.0017,"dx":0.0017,"nx":28,"ny":28,"refTime":"2026-02-11T03:00:00:Z","depth":"2","parameterNumber":3,"parameterNumberName":"V-component_of_CURRENTS"},"data":[0,0,0,0,0,0,0,0,0,0,0,0,0,0,0,0,0,0,0,0,0,0,0,0,0,0,0,0,0,0,0,0,0,0,0,0,0,0,0,0,0,0,0,0,0,0,0,0,0,0,0,0,0,0,0,0,0,0,-0.0452,-0.0451,0,-0.0392,-0.0391,-0.039,-0.034,-0.034,-0.0339,-0.0339,-0.0222,-0.022,-0.0217,0,0,0,0,0,0,0,0,0,0,0,0,0,-0.0484,-0.0484,-0.0452,-0.0451,-0.045,-0.0392,-0.0391,-0.039,-0.034,-0.034,-0.0339,-0.0338,-0.0223,-0.022,-0.0217,0,0,0,0,0,0,0,0,0,0,0,0,0,-0.0452,-0.0484,-0.0452,-0.0418,-0.0415,-0.0392,-0.0391,-0.039,-0.0341,-0.034,-0.0339,-0.0338,-0.0224,-0.022,-0.0216,-0.0209,0,0,-0.0204,-0.0203,0,0,0,0,0,0,0,0,-0.0454,-0.0451,-0.0424,-0.0421,-0.0417,-0.0372,-0.0359,-0.0326,-0.0341,-0.0369,-0.0339,-0.0338,-0.0268,-0.026,-0.0252,-0.0203,-0.0198,-0.0204,-0.0202,-0.02,-0.0199,0,0,0,0,0,0,0,-0.0456,-0.0453,-0.0428,-0.0423,-0.0419,-0.0393,-0.0387,-0.0353,-0.0323,-0.0366,-0.0363,-0.0356,-0.0265,-0.0256,-0.0248,-0.0196,-0.0204,-0.0201,-0.0198,-0.0197,-0.0111,-0.0111,0,0,0,0,0,0,-0.0466,-0.0455,-0.043,-0.0426,-0.0433,-0.0393,-0.0387,-0.0388,-0.0324,-0.0314,-0.0357,-0.0354,-0.0263,-0.0253,-0.0244,-0.022,-0.02,-0.0196,-0.0194,-0.0111,-0.0111,-0.0111,0,0,0,0,0,0,-0.0467,-0.0465,-0.0433,-0.0439,-0.0433,-0.0393,-0.0394,-0.0387,-0.0374,-0.0317,-0.0306,-0.0351,-0.0262,-0.0249,-0.0214,-0.0215,-0.0195,-0.0191,-0.0111,-0.0111,-0.0111,-0.0179,0,0,0,0,0,0,-0.0469,-0.0466,-0.0472,-0.044,-0.0433,-0.0423,-0.0395,-0.0386,-0.0371,-0.0367,-0.0309,-0.0297,-0.026,-0.022,-0.021,-0.021,-0.0188,-0.0111,-0.0111,-0.0111,-0.0177,-0.0182,-0.0186,0,0,0,0,0,-0.047,-0.0481,-0.0472,-0.0469,-0.0442,-0.0424,-0.0418,-0.0387,-0.0372,-0.0371,-0.0331,-0.0299,-0.0213,-0.0217,-0.0205,-0.0204,-0.0111,-0.0111,-0.0111,-0.0175,-0.0181,-0.0186,0,0,0,0,0,0,-0.0496,-0.0476,-0.0466,-0.047,-0.0451,-0.0415,-0.0412,-0.0392,-0.0361,-0.0354,-0.0301,-0.0287,-0.0256,-0.0221,-0.0227,-0.0179,-0.0156,-0.0154,-0.0209,-0.0213,-0.0218,-0.0211,-0.0185,0,0,0,0,0,-0.0506,-0.0511,-0.0484,-0.0488,-0.0481,-0.0448,-0.0437,-0.0417,-0.0385,-0.0371,-0.0331,-0.0287,-0.0249,-0.0225,-0.0188,-0.0163,-0.0116,-0.0153,-0.0158,-0.0162,-0.0148,-0.0083,-0.008,-0.0111,-0.0111,-0.0111,0,0,-0.0517,-0.0507,-0.0509,-0.0494,-0.0476,-0.0469,-0.044,-0.0428,-0.0416,-0.0363,-0.0337,-0.0302,-0.0246,-0.0219,-0.0201,-0.0188,-0.0132,-0.0162,-0.0166,-0.0149,-0.0082,-0.0079,-0.0076,-0.0111,-0.0111,-0.0111,0,0,-0.0538,-0.0533,-0.0541,-0.053,-0.0509,-0.0488,-0.0488,-0.0456,-0.0436,-0.0412,-0.0369,-0.0333,-0.0282,-0.0239,-0.0211,-0.0215,-0.016,-0.0209,-0.0221,-0.016,-0.0156,-0.0153,-0.0107,-0.0099,-0.0209,-0.0209,-0.0209,0,-0.055,-0.0557,-0.054,-0.0542,-0.0533,-0.05,-0.0501,-0.0479,-0.0439,-0.0418,-0.0411,-0.0326,-0.0286,-0.0235,-0.0239,-0.0223,-0.0185,-0.021,-0.0165,-0.0161,-0.0156,-0.011,-0.01,-0.0212,-0.0212,-0.0212,-0.0211,0,-0.0574,-0.0578,-0.0582,-0.0575,-0.0564,-0.0562,-0.0529,-0.0513,-0.0489,-0.0458,-0.0411,-0.036,-0.0303,-0.0294,-0.0266,-0.0216,-0.02,-0.0183,-0.0154,-0.0157,-0.0108,-0.0097,-0.0217,-0.0216,-0.0215,-0.0214,0,0,-0.0601,-0.06,-0.0601,-0.0604,-0.0582,-0.0577,-0.0557,-0.0524,-0.0506,-0.0467,-0.0432,-0.0375,-0.0342,-0.0307,-0.0269,-0.0219,-0.0165,-0.0191,-0.0187,-0.0151,-0.0037,-0.0015,0.0,-0.0142,-0.014,-0.0139,-0.0025,0,-0.0621,-0.0641,-0.0627,-0.0637,-0.0644,-0.0608,-0.0592,-0.0558,-0.0522,-0.0483,-0.0418,-0.0375,-0.0348,-0.0326,-0.027,-0.0191,-0.0134,-0.0198,-0.0035,-0.003,-0.0013,0.0015,-0.0004,0.0098,-0.0013,-0.0011,-0.0009,0,-0.0647,-0.0657,-0.0676,-0.067,-0.0668,-0.0665,-0.0632,-0.0612,-0.0545,-0.0514,-0.0455,-0.0402,-0.0323,-0.0303,-0.0155,-0.0199,-0.0117,-0.0056,-0.005,0.001,0.0015,0.0088,0.0124,0.0011,0.0009,0.0008,0.0007,0,-0.0681,-0.0688,-0.0706,-0.0707,-0.0694,-0.0689,-0.0675,-0.0624,-0.0605,-0.0532,-0.0509,-0.0405,-0.0353,-0.0238,-0.0115,-0.0129,0.0049,0.0046,0.0148,0.015,0.0189,0.0191,0.017,0.017,0.017,0.0169,0.0169,0,-0.0712,-0.0725,-0.0727,-0.0741,-0.0757,-0.0728,-0.0727,-0.0694,-0.0642,-0.0616,-0.0531,-0.0481,-0.0332,-0.0217,-0.0107,0.0059,0.0063,0.0165,0.0192,0.0162,0.016,0.0131,0.0125,0.0174,0.0173,0.0172,0.0171,0,-0.0748,-0.0749,-0.0775,-0.0776,-0.0778,-0.0791,-0.0779,-0.0773,-0.0717,-0.0679,-0.0656,-0.0525,-0.0371,-0.0221,-0.0024,0.0069,0.0221,0.0282,0.0227,0.0246,0.0275,0.0264,0.0407,0.0409,0.041,0.0412,0.0413,0,-0.0769,-0.0788,-0.0815,-0.0839,-0.0844,-0.0858,-0.0865,-0.0819,-0.0806,-0.0702,-0.0683,-0.0525,-0.04,-0.0114,0.0081,0.0292,0.0285,0.0392,0.0371,0.0293,0.0305,0.0291,0.0279,0.0387,0.0388,0.0389,0.039,0,-0.0807,-0.0819,-0.0843,-0.0899,-0.0924,-0.0945,-0.0946,-0.0944,-0.0875,-0.0812,-0.0694,-0.058,-0.0306,-0.0065,0.02,0.0317,0.0353,0.0414,0.0377,0.0322,0.0283,0.0291,0.0278,0.0396,0.0395,0.0395,0.0394,0.0394,-0.0832,-0.0867,-0.0906,-0.0954,-0.0989,-0.1016,-0.1018,-0.0993,-0.0944,-0.0821,-0.071,-0.051,-0.0288,0.0099,0.0283,0.0446,0.044,0.0481,0.0476,0.0471,0.0441,0.0406,0.0535,0.0536,0.0536,0.0536,0.0536,0,-0.0862,-0.0901,-0.0956,-0.1011,-0.1054,-0.1057,-0.1056,-0.102,-0.0947,-0.0812,-0.0661,-0.0391,-0.012,0.01,0.037,0.0529,0.0507,0.0548,0.0488,0.0482,0.0476,0.0442,0.054,0.054,0.0541,0.0541,0,0,-0.0878,-0.0936,-0.0967,-0.1046,-0.1084,-0.1103,-0.1093,-0.1013,-0.0906,-0.074,-0.0583,-0.0381,-0.0111,0.0081,0.0281,0.0419,0.0405,0.0428,0.0411,0.031,0.0302,0.0426,0.0367,0,0,0,0,0]}],[{"header":{"parameterUnit":"m.s-1","parameterCategory":2,"la1":30.2991,"la2":30.254,"lo1":-89.0895,"lo2":-89.0444,"dy":0.0017,"dx":0.0017,"nx":28,"ny":28,"refTime":"2026-02-11T03:00:00:Z","depth":"4","parameterNumber":2,"parameterNumberName":"U-component_of_CURRENTS"},"data":[0,0,0,0,0,0,0,0,0,0,0,0,0,0,0,0,0,0,0,0,0,0,0,0,0,0,0,0,0,0,0,0,0,0,0,0,0,0,0,0,0,0,0,0,0,0,0,0,0,0,0,0,0,0,0,0,0,0,-0.1393,-0.1394,0,-0.1452,-0.1453,-0.1453,-0.1482,-0.1482,-0.1483,-0.1483,-0.1544,-0.1546,-0.1547,0,0,0,0,0,0,0,0,0,0,0,0,0,-0.132,-0.1321,-0.1393,-0.1394,-0.1395,-0.1452,-0.1453,-0.1453,-0.1482,-0.1482,-0.1483,-0.1483,-0.1544,-0.1546,-0.1547,0,0,0,0,0,0,0,0,0,0,0,0,0,-0.1362,-0.1322,-0.1393,-0.1417,-0.1419,-0.1452,-0.1453,-0.1454,-0.1482,-0.1482,-0.1483,-0.1483,-0.1543,-0.1545,-0.1548,-0.156,0,0,-0.1555,-0.1556,0,0,0,0,0,0,0,0,-0.136,-0.1365,-0.1412,-0.1415,-0.1418,-0.1461,-0.145,-0.149,-0.1482,-0.1458,-0.1483,-0.1483,-0.1517,-0.1521,-0.1531,-0.1563,-0.1566,-0.1555,-0.1557,-0.1558,-0.1558,0,0,0,0,0,0,0,-0.1357,-0.1362,-0.1416,-0.1413,-0.1417,-0.1429,-0.1435,-0.1457,-0.1485,-0.146,-0.1462,-0.147,-0.1518,-0.1529,-0.1533,-0.1567,-0.1555,-0.1557,-0.1559,-0.156,-0.1668,-0.1669,0,0,0,0,0,0,-0.135,-0.136,-0.1414,-0.1418,-0.1389,-0.1431,-0.1437,-0.1446,-0.1485,-0.1492,-0.147,-0.1471,-0.1525,-0.153,-0.1535,-0.16,-0.1558,-0.156,-0.1561,-0.1666,-0.1668,-0.1669,0,0,0,0,0,0,-0.1348,-0.1354,-0.1412,-0.139,-0.1399,-0.1432,-0.1442,-0.1447,-0.1481,-0.1493,-0.1499,-0.15,-0.1525,-0.1532,-0.158,-0.1601,-0.1561,-0.1563,-0.1664,-0.1667,-0.1669,-0.17,0,0,0,0,0,0,-0.1346,-0.1354,-0.137,-0.139,-0.14,-0.1445,-0.1442,-0.1449,-0.1484,-0.1487,-0.1521,-0.1525,-0.1526,-0.1576,-0.1582,-0.1604,-0.1565,-0.1663,-0.1665,-0.1668,-0.1697,-0.1703,-0.1708,0,0,0,0,0,-0.1343,-0.1362,-0.137,-0.1378,-0.1417,-0.1446,-0.1453,-0.1475,-0.1486,-0.1505,-0.1533,-0.1525,-0.1597,-0.158,-0.1586,-0.1609,-0.1661,-0.1665,-0.1668,-0.1695,-0.1702,-0.1708,0,0,0,0,0,0,-0.1341,-0.1367,-0.1377,-0.1404,-0.143,-0.1451,-0.1476,-0.1491,-0.1528,-0.1539,-0.1548,-0.1555,-0.1602,-0.1607,-0.1587,-0.1649,-0.1627,-0.1631,-0.1645,-0.1652,-0.1657,-0.1653,-0.1567,0,0,0,0,0,-0.1347,-0.1369,-0.1393,-0.1418,-0.1433,-0.146,-0.1479,-0.1497,-0.1526,-0.1543,-0.1568,-0.1595,-0.1617,-0.1637,-0.1657,-0.1697,-0.1684,-0.1715,-0.1721,-0.1725,-0.1728,-0.1733,-0.1739,-0.168,-0.168,-0.168,0,0,-0.1354,-0.1371,-0.1386,-0.1419,-0.1442,-0.1471,-0.1473,-0.1511,-0.1539,-0.1544,-0.16,-0.1618,-0.1633,-0.1673,-0.1694,-0.1683,-0.1734,-0.1729,-0.1733,-0.1733,-0.1737,-0.1742,-0.1747,-0.1682,-0.1682,-0.1682,0,0,-0.1371,-0.1395,-0.1417,-0.1441,-0.148,-0.1497,-0.1513,-0.1552,-0.1576,-0.1626,-0.1634,-0.1668,-0.1712,-0.1722,-0.1731,-0.1783,-0.1762,-0.1794,-0.182,-0.1826,-0.183,-0.1834,-0.1812,-0.1814,-0.1797,-0.1798,-0.1798,0,-0.1381,-0.1409,-0.1429,-0.1455,-0.1482,-0.1511,-0.1543,-0.157,-0.1622,-0.1646,-0.1651,-0.1719,-0.1731,-0.1769,-0.1785,-0.1793,-0.1786,-0.1791,-0.1831,-0.1835,-0.1838,-0.1815,-0.1816,-0.1799,-0.1799,-0.1799,-0.1799,0,-0.1404,-0.1438,-0.1455,-0.1496,-0.1527,-0.1562,-0.1597,-0.1638,-0.1671,-0.1694,-0.1751,-0.1771,-0.1808,-0.1818,-0.1817,-0.1853,-0.1836,-0.1834,-0.1809,-0.1845,-0.1819,-0.182,-0.1802,-0.1802,-0.1801,-0.1801,0,0,-0.1396,-0.146,-0.1469,-0.1496,-0.1555,-0.1579,-0.1633,-0.1682,-0.1718,-0.1766,-0.1806,-0.1847,-0.1861,-0.1873,-0.188,-0.1886,-0.1896,-0.1875,-0.1875,-0.1844,-0.1893,-0.1759,-0.1747,-0.1904,-0.1905,-0.1906,-0.186,0,-0.1412,-0.1462,-0.1495,-0.1554,-0.1584,-0.1632,-0.1675,-0.1725,-0.1766,-0.1812,-0.1837,-0.1877,-0.188,-0.1901,-0.1912,-0.1904,-0.1902,-0.1907,-0.1872,-0.187,-0.1738,-0.1745,-0.1908,-0.1861,-0.1861,-0.1861,-0.1861,0,-0.1417,-0.1454,-0.1512,-0.1582,-0.1601,-0.1644,-0.1719,-0.1762,-0.1824,-0.1855,-0.1901,-0.1919,-0.1948,-0.1938,-0.1943,-0.1949,-0.1927,-0.1911,-0.1909,-0.1773,-0.1737,-0.1822,-0.1862,-0.1862,-0.1862,-0.1862,-0.1861,0,-0.1385,-0.1463,-0.1511,-0.1537,-0.162,-0.1663,-0.1711,-0.178,-0.1817,-0.1883,-0.1912,-0.1951,-0.197,-0.1964,-0.1938,-0.1948,-0.1918,-0.1923,-0.1778,-0.1768,-0.1889,-0.1885,-0.1916,-0.1916,-0.1917,-0.1917,-0.1917,0,-0.1372,-0.1414,-0.1506,-0.1531,-0.1592,-0.1656,-0.1722,-0.1772,-0.1841,-0.1869,-0.1932,-0.1944,-0.1981,-0.1969,-0.1942,-0.1848,-0.1921,-0.1773,-0.1747,-0.1902,-0.1901,-0.1888,-0.1885,-0.1915,-0.1915,-0.1916,-0.1916,0,-0.1321,-0.1385,-0.1444,-0.1543,-0.1578,-0.1619,-0.172,-0.1752,-0.1834,-0.1869,-0.1889,-0.1946,-0.1919,-0.1921,-0.1894,-0.1832,-0.1767,-0.1715,-0.1861,-0.1846,-0.1612,-0.1612,-0.1547,-0.1542,-0.1538,-0.1534,-0.1531,0,-0.1294,-0.132,-0.1434,-0.1466,-0.1516,-0.1592,-0.1631,-0.1732,-0.1759,-0.1843,-0.1838,-0.1857,-0.187,-0.1715,-0.1742,-0.1662,-0.1644,-0.1603,-0.1625,-0.1592,-0.1575,-0.1582,-0.1587,-0.1524,-0.1523,-0.1522,-0.1521,0,-0.1233,-0.1288,-0.1332,-0.1397,-0.1453,-0.1506,-0.1572,-0.1582,-0.1675,-0.177,-0.1725,-0.1692,-0.1655,-0.1615,-0.1559,-0.1511,-0.1628,-0.1558,-0.1567,-0.1587,-0.1564,-0.1552,-0.1563,-0.1506,-0.1508,-0.1509,-0.151,0,-0.1181,-0.1196,-0.1257,-0.13,-0.1368,-0.1382,-0.144,-0.1455,-0.1494,-0.1589,-0.1566,-0.1579,-0.1632,-0.1535,-0.1485,-0.1421,-0.1404,-0.1362,-0.1382,-0.1399,-0.137,-0.132,-0.1153,0,0,0,0,0,-0.1116,-0.1115,-0.1149,-0.1187,-0.1249,-0.1282,-0.1374,-0.1431,-0.1527,-0.1448,-0.1502,-0.1452,-0.1377,-0.1393,-0.129,-0.1418,-0.1413,-0.1295,-0.1377,-0.1422,-0.144,-0.1419,0,0,0,0,0,0,-0.107,-0.1098,-0.1106,-0.1076,-0.1077,-0.1126,-0.1176,-0.1246,-0.1217,-0.1317,-0.128,-0.1353,-0.1301,-0.1395,-0.1253,-0.1255,-0.1275,-0.1315,-0.131,-0.1412,-0.1428,-0.1442,-0.1427,0,0,0,0,0]},{"header":{"parameterUnit":"m.s-1","parameterCategory":2,"la1":30.2991,"la2":30.254,"lo1":-89.0895,"lo2":-89.0444,"dy":0.0017,"dx":0.0017,"nx":28,"ny":28,"refTime":"2026-02-11T03:00:00:Z","depth":"4","parameterNumber":3,"parameterNumberName":"V-component_of_CURRENTS"},"data":[0,0,0,0,0,0,0,0,0,0,0,0,0,0,0,0,0,0,0,0,0,0,0,0,0,0,0,0,0,0,0,0,0,0,0,0,0,0,0,0,0,0,0,0,0,0,0,0,0,0,0,0,0,0,0,0,0,0,-0.0364,-0.0364,0,-0.0333,-0.0332,-0.0332,-0.0303,-0.0303,-0.0303,-0.0302,-0.0235,-0.0233,-0.0232,0,0,0,0,0,0,0,0,0,0,0,0,0,-0.0373,-0.0373,-0.0364,-0.0364,-0.0363,-0.0333,-0.0332,-0.0332,-0.0303,-0.0303,-0.0303,-0.0302,-0.0235,-0.0233,-0.0232,0,0,0,0,0,0,0,0,0,0,0,0,0,-0.0358,-0.0373,-0.0364,-0.0345,-0.0343,-0.0333,-0.0332,-0.0332,-0.0304,-0.0303,-0.0302,-0.0302,-0.0236,-0.0234,-0.0231,-0.0229,0,0,-0.0225,-0.0224,0,0,0,0,0,0,0,0,-0.0359,-0.0358,-0.0349,-0.0347,-0.0344,-0.0321,-0.031,-0.0295,-0.0304,-0.0319,-0.0302,-0.0302,-0.0261,-0.0256,-0.0252,-0.0226,-0.0223,-0.0225,-0.0223,-0.0222,-0.0222,0,0,0,0,0,0,0,-0.036,-0.0359,-0.0352,-0.0348,-0.0346,-0.0329,-0.0327,-0.0307,-0.0293,-0.0318,-0.0315,-0.0312,-0.0259,-0.0255,-0.025,-0.0222,-0.0225,-0.0223,-0.0221,-0.022,-0.0188,-0.0188,0,0,0,0,0,0,-0.0366,-0.036,-0.0353,-0.0351,-0.035,-0.0329,-0.0327,-0.0329,-0.0294,-0.0288,-0.0312,-0.031,-0.0259,-0.0253,-0.0248,-0.0241,-0.0222,-0.022,-0.0219,-0.0187,-0.0188,-0.0188,0,0,0,0,0,0,-0.0366,-0.0366,-0.0354,-0.0354,-0.0351,-0.033,-0.0333,-0.0329,-0.0326,-0.029,-0.0283,-0.0314,-0.0258,-0.0251,-0.0237,-0.0238,-0.0219,-0.0217,-0.0187,-0.0187,-0.0188,-0.0228,0,0,0,0,0,0,-0.0367,-0.0366,-0.0374,-0.0355,-0.0352,-0.0354,-0.0333,-0.0329,-0.0325,-0.0322,-0.0289,-0.0282,-0.0257,-0.0241,-0.0235,-0.0235,-0.0216,-0.0186,-0.0187,-0.0188,-0.0226,-0.023,-0.0233,0,0,0,0,0,-0.0367,-0.0379,-0.0375,-0.0374,-0.0362,-0.0355,-0.0352,-0.0334,-0.0325,-0.0329,-0.0307,-0.0283,-0.0241,-0.0239,-0.0232,-0.0232,-0.0186,-0.0187,-0.0188,-0.0224,-0.0229,-0.0233,0,0,0,0,0,0,-0.0385,-0.0376,-0.0372,-0.038,-0.0371,-0.035,-0.0352,-0.034,-0.0327,-0.0325,-0.029,-0.0282,-0.0272,-0.0249,-0.0247,-0.0226,-0.0209,-0.0209,-0.0239,-0.0244,-0.0247,-0.024,-0.0214,0,0,0,0,0,-0.0394,-0.0402,-0.0388,-0.0395,-0.0393,-0.0375,-0.0371,-0.0361,-0.0344,-0.0338,-0.0315,-0.029,-0.0271,-0.0256,-0.0239,-0.0225,-0.0184,-0.0221,-0.0224,-0.0227,-0.0217,-0.0155,-0.0151,-0.0191,-0.0191,-0.0191,0,0,-0.0403,-0.04,-0.0404,-0.04,-0.0392,-0.0392,-0.0372,-0.0371,-0.0368,-0.0332,-0.0325,-0.0306,-0.0273,-0.0261,-0.0253,-0.0239,-0.0198,-0.0229,-0.0231,-0.0219,-0.0155,-0.0151,-0.0147,-0.0192,-0.0192,-0.0192,0,0,-0.0421,-0.0423,-0.0433,-0.043,-0.0423,-0.0412,-0.0414,-0.0399,-0.039,-0.0385,-0.0357,-0.0334,-0.0313,-0.028,-0.0262,-0.0273,-0.0224,-0.0275,-0.0277,-0.0218,-0.0213,-0.0209,-0.0163,-0.0154,-0.0269,-0.0269,-0.0269,0,-0.0431,-0.0442,-0.0434,-0.0441,-0.0439,-0.0423,-0.0429,-0.042,-0.0401,-0.039,-0.0389,-0.0341,-0.0317,-0.0279,-0.0285,-0.0279,-0.0242,-0.0264,-0.022,-0.0215,-0.021,-0.0164,-0.0153,-0.0271,-0.0271,-0.0271,-0.0271,0,-0.0451,-0.0462,-0.0468,-0.0471,-0.0469,-0.0475,-0.0459,-0.0456,-0.0446,-0.0429,-0.0403,-0.0369,-0.0331,-0.0327,-0.031,-0.0263,-0.025,-0.0238,-0.0207,-0.0208,-0.016,-0.0148,-0.0274,-0.0274,-0.0273,-0.0272,0,0,-0.0467,-0.048,-0.0483,-0.0491,-0.0487,-0.0488,-0.0484,-0.0469,-0.0459,-0.0441,-0.0415,-0.0384,-0.0357,-0.0335,-0.0305,-0.0255,-0.0196,-0.0233,-0.0229,-0.0184,-0.0069,-0.0088,-0.0077,-0.0174,-0.0172,-0.017,-0.0055,0,-0.0484,-0.0508,-0.0505,-0.0524,-0.0533,-0.0518,-0.0513,-0.0497,-0.0479,-0.0452,-0.0404,-0.0377,-0.0362,-0.0343,-0.029,-0.0223,-0.0165,-0.0228,-0.0078,-0.0074,-0.0086,-0.0064,-0.0164,-0.0046,-0.0043,-0.0041,-0.004,0,-0.0501,-0.0515,-0.054,-0.0548,-0.055,-0.0558,-0.0544,-0.0538,-0.0493,-0.0474,-0.0428,-0.039,-0.0321,-0.0308,-0.0175,-0.0217,-0.0143,-0.0088,-0.0082,-0.0073,-0.0071,-0.0041,-0.0018,-0.002,-0.0021,-0.0023,-0.0024,0,-0.0516,-0.0537,-0.056,-0.0566,-0.0572,-0.0577,-0.0576,-0.0547,-0.0538,-0.0483,-0.0465,-0.0378,-0.0334,-0.0231,-0.0131,-0.0144,0.0019,0.0019,0.0077,0.0076,0.0077,0.0072,0.0133,0.0133,0.0133,0.0133,0.0132,0,-0.053,-0.055,-0.0575,-0.0589,-0.0613,-0.0603,-0.0613,-0.0596,-0.0561,-0.0542,-0.0478,-0.0435,-0.0311,-0.0211,-0.0117,0.001,0.0037,0.0089,0.0112,0.0054,0.0044,0.0085,0.0078,0.0137,0.0136,0.0135,0.0134,0,-0.0543,-0.0559,-0.0592,-0.0614,-0.0626,-0.0644,-0.0655,-0.0654,-0.0617,-0.0587,-0.0569,-0.0464,-0.0336,-0.0213,-0.0038,0.0023,0.0149,0.0194,0.0119,0.0133,0.0164,0.0154,0.0273,0.0274,0.0274,0.0274,0.0275,0,-0.0549,-0.057,-0.0621,-0.065,-0.0668,-0.0695,-0.0711,-0.0689,-0.0679,-0.0602,-0.0581,-0.0457,-0.0377,-0.0142,-0.0019,0.0167,0.0188,0.0248,0.0211,0.0172,0.0183,0.0171,0.016,0.0275,0.0275,0.0275,0.0276,0,-0.0562,-0.0588,-0.0618,-0.0683,-0.0719,-0.075,-0.0765,-0.0758,-0.0715,-0.0686,-0.0568,-0.0445,-0.0298,-0.0133,0.0011,0.0141,0.0201,0.0252,0.0252,0.0218,0.0176,0.0183,0.0172,0.0277,0.0277,0.0276,0.0276,0,-0.0573,-0.0603,-0.0653,-0.0703,-0.0757,-0.0785,-0.079,-0.0758,-0.0734,-0.0638,-0.0596,-0.0435,-0.0333,-0.0144,-0.0012,0.0109,0.0134,0.0162,0.0167,0.0167,0.0089,0.0016,0.0102,0,0,0,0,0,-0.0578,-0.0614,-0.0668,-0.0724,-0.0778,-0.0803,-0.0815,-0.0806,-0.0763,-0.0681,-0.0632,-0.0489,-0.0275,-0.0179,-0.0057,-0.0027,0.0134,0.0115,0.0162,0.0284,0.0283,0.0205,0,0,0,0,0,0,-0.0583,-0.0637,-0.0666,-0.0728,-0.0768,-0.0816,-0.0824,-0.0796,-0.0736,-0.0674,-0.0554,-0.0475,-0.0266,-0.0342,-0.0058,-0.0021,0.0021,0.0221,0.0223,0.0285,0.0284,0.0282,0.0202,0,0,0,0,0]}]]